Temp
33 31 30 30 31 33 34 34 34 35 35 35 34 32 30 28 27 30 30 27 28 27 27 28 26 26 27 27 27 28 29 29 30 31 32 32 32 32 33 33 32 32 33 34 33 33 33 33 32 32 31 31 31 30 29 29 28 28 27 27 27 26 26 25 26 26 26 26 26 27 26 26 26 27 27 27 27 26 26 25 24 24 24 24 24 24
33 29 30 32 33 35 35 35 35 35 35 35 34 31 29 28 29 32 30 25 26 27 26 27 26 25 27 27 26 27 28 29 29 31 32 32 32 32 33 33 32 33 33 33 33 33 33 33 32 32 31 31 31 30 29 28 28 27 27 27 27 26 26 26 26 26 26 27 27 27 27 26 26 26 27 27 27 27 26 25 24 24 24 24 24 24
30 29 32 34 35 35 35 36 35 35 35 35 33 30 27 29 30 31 30 26 25 26 25 26 25 25 26 27 26 26 26 27 28 29 31 32 32 32 33 33 32 32 33 33 33 33 33 32 32 32 31 31 31 30 29 28 28 27 27 27 27 26 26 26 26 27 27 27 27 26 26 26 26 26 27 27 27 26 26 25 25 25 24 24 24 24
27 30 34 35 35 35 35 35 36 35 34 34 33 29 27 30 29 27 28 28 26 27 27 26 25 24 26 27 26 25 25 25 25 25 27 30 31 32 33 33 32 32 32 32 32 33 33 32 32 31 31 31 31 30 29 29 28 27 27 27 27 26 27 27 27 27 27 27 26 26 26 26 26 26 26 27 26 26 26 25 25 25 24 24 24 24
29 32 35 34 35 35 34 35 36 33 31 33 34 30 29 32 31 28 29 29 27 28 28 26 23 23 24 25 25 25 24 24 24 24 26 27 29 31 33 32 33 32 32 32 32 32 33 32 32 31 31 31 31 30 29 29 28 27 27 27 26 26 27 27 27 26 26 26 25 26 26 26 26 26 26 26 26 26 26 26 25 25 24 25 25 25
32 35 36 34 35 35 34 34 35 33 29 30 34 34 34 34 33 31 30 28 25 24 27 26 21 21 24 24 25 26 24 24 24 25 26 26 26 29 32 32 32 33 32 32 32 32 33 32 32 31 31 31 31 30 30 29 29 27 27 27 26 26 26 26 26 26 26 25 25 26 26 26 26 26 26 26 26 26 27 26 26 25 25 25 25 25
33 35 36 35 34 35 34 33 35 35 29 26 33 37 37 37 34 31 30 27 23 23 28 28 23 21 22 23 26 26 24 24 24 24 26 26 26 29 31 32 32 33 32 32 32 32 33 32 32 31 31 31 31 30 30 30 29 28 27 27 26 26 26 26 26 25 25 25 25 25 26 26 26 26 26 26 26 26 27 27 26 25 25 25 26 26
33 34 34 35 34 34 33 32 34 35 29 27 35 37 36 37 35 33 32 28 26 27 27 28 26 22 21 23 27 26 24 24 25 25 25 26 27 28 30 32 32 32 32 32 32 32 32 32 32 31 31 31 31 31 30 30 29 28 26 26 26 26 26 26 25 25 25 25 25 26 26 26 26 26 26 26 26 26 27 27 26 26 26 26 26 26
35 34 34 34 33 33 33 33 35 35 31 31 36 37 36 36 36 36 33 29 30 28 23 25 27 23 21 24 27 26 24 24 25 25 25 26 27 27 29 31 32 32 32 32 32 32 32 32 32 32 31 31 31 31 30 30 30 28 27 26 26 26 26 26 25 25 25 25 25 26 26 26 26 26 26 26 26 26 26 26 26 26 26 26 26 26
35 34 35 34 32 33 33 34 35 34 33 35 36 36 36 36 36 37 34 29 28 26 22 24 27 24 21 23 24 24 23 24 25 25 25 25 26 27 28 31 32 32 32 32 32 32 33 32 32 32 31 31 31 31 31 30 30 28 27 26 26 26 26 25 25 25 25 25 25 26 27 26 26 26 26 26 26 25 26 26 26 26 26 26 26 26
34 34 35 34 33 34 34 35 36 35 35 35 36 35 34 35 36 35 33 29 25 23 23 25 27 25 22 22 23 24 25 26 26 25 25 25 26 27 29 29 31 32 32 32 32 32 33 32 32 32 32 32 31 31 31 30 30 28 27 27 26 26 26 25 25 25 25 26 26 26 27 27 26 26 26 26 25 25 25 25 25 25 26 26 25 26
33 33 34 34 34 35 35 35 36 36 36 35 35 33 29 28 30 28 27 27 23 22 24 27 29 26 22 23 25 26 27 28 27 26 25 25 26 27 28 28 28 30 32 32 31 32 32 32 32 32 31 32 31 31 31 30 29 28 28 27 26 26 26 25 25 25 26 26 26 26 27 27 27 26 26 26 25 25 25 25 26 25 25 26 25 26
32 33 34 33 34 35 34 33 34 35 35 35 33 29 24 23 24 23 23 24 23 23 26 28 28 25 23 25 28 28 29 29 29 28 27 26 26 27 27 27 27 28 31 32 32 32 32 32 32 32 31 31 31 31 31 30 29 28 28 27 27 26 26 25 26 26 26 26 26 26 26 26 27 27 26 26 26 26 26 26 26 25 25 26 26 26
27 32 33 32 33 34 34 31 29 30 33 33 30 25 23 22 22 22 23 23 23 23 26 30 28 24 23 27 30 30 30 30 30 29 29 28 28 28 27 27 27 28 30 32 32 32 32 32 32 32 32 31 32 31 31 31 30 29 28 27 27 26 26 26 26 26 26 26 26 26 26 26 26 27 26 26 26 26 26 26 26 26 26 26 26 26
23 26 30 32 32 33 34 33 31 33 34 33 33 30 25 23 23 23 23 23 23 23 25 28 26 23 22 26 31 32 31 32 31 30 30 29 29 29 28 28 28 28 29 30 32 33 32 32 32 32 32 31 31 31 31 31 30 29 28 27 27 27 26 26 26 26 26 26 26 26 26 26 26 26 26 26 26 26 26 26 26 26 26 26 26 26
23 24 32 34 33 34 33 34 36 35 32 33 35 31 26 27 27 24 23 24 23 23 24 25 24 25 27 29 31 32 32 33 32 31 30 29 29 29 29 29 29 29 29 29 31 32 33 32 32 32 32 31 31 31 31 31 30 29 28 27 27 27 26 26 26 26 26 26 26 26 26 26 26 26 26 26 26 26 26 26 26 26 26 26 26 26
22 25 33 34 33 35 33 34 36 33 30 32 31 27 29 34 31 24 23 25 24 23 24 24 24 25 28 29 31 32 31 32 32 31 30 30 30 29 29 30 30 29 29 28 29 31 32 32 32 32 32 31 31 32 31 31 30 29 28 27 27 27 27 26 26 26 26 26 26 26 26 26 26 26 27 27 27 27 27 27 26 26 26 26 26 26
25 24 31 34 32 34 35 34 35 35 33 31 28 29 33 35 33 27 23 23 24 22 23 24 23 23 23 25 29 31 31 31 31 30 29 29 30 29 29 29 30 30 30 29 28 29 31 32 32 32 32 32 32 32 31 31 30 30 28 28 28 27 27 27 26 27 26 26 26 26 26 26 26 27 27 27 27 27 27 27 26 26 26 26 26 26
29 23 28 34 33 34 36 33 31 34 36 33 31 34 33 27 25 26 23 23 23 22 23 24 24 23 23 24 28 30 30 31 31 31 30 29 29 30 29 29 29 30 29 29 28 27 29 31 31 32 32 32 32 31 31 31 30 30 29 28 28 28 27 27 27 27 27 26 27 26 26 26 26 27 27 27 27 27 27 27 26 26 26 26 26 26
31 25 24 31 34 34 34 31 27 29 33 35 34 35 34 29 26 25 25 24 23 22 23 23 23 23 24 27 30 30 32 31 30 30 29 29 29 29 30 29 29 29 29 28 28 27 28 29 30 31 31 31 31 31 31 30 30 30 29 29 29 28 28 28 28 28 27 27 27 27 27 26 26 27 27 27 27 27 27 27 27 27 27 26 26 26
32 27 23 28 33 31 29 30 29 29 31 31 29 29 30 31 30 28 27 26 24 23 23 23 22 22 25 29 31 31 31 30 28 28 28 28 28 28 29 30 29 28 28 28 27 27 27 27 29 30 31 31 31 31 30 30 30 30 29 29 29 28 28 28 28 28 27 28 28 27 27 27 27 27 27 27 27 27 27 26 27 27 27 27 26 26
29 27 23 24 27 26 28 32 33 33 34 32 30 29 29 29 28 25 25 26 25 24 23 23 22 22 26 29 29 29 28 27 27 27 27 27 27 27 28 30 29 28 28 29 28 28 28 28 28 29 30 30 30 30 30 29 29 29 29 29 29 29 28 29 29 28 28 28 28 28 27 27 27 27 27 28 28 28 27 27 27 27 27 27 26 26
29 28 24 23 25 27 29 32 33 33 36 35 33 33 33 31 27 23 22 24 25 24 25 24 22 23 26 26 27 28 27 26 27 27 27 27 26 27 27 28 29 29 29 29 28 28 28 28 28 29 29 30 30 29 29 28 28 28 28 28 29 29 29 29 29 29 28 28 28 28 28 28 28 27 27 28 28 28 28 28 27 27 27 27 27 26
29 27 24 22 26 29 30 32 33 34 35 33 33 35 34 32 31 29 27 27 25 24 24 24 22 23 26 25 25 26 26 26 26 26 27 26 26 28 28 27 28 29 28 28 27 27 28 28 28 28 29 29 29 28 27 27 27 28 27 27 28 28 29 29 29 29 29 29 28 28 28 28 28 28 28 28 28 28 28 28 28 28 27 27 27 27
27 26 24 22 22 24 25 27 29 31 33 32 33 35 35 34 34 33 31 29 25 24 24 24 22 23 25 25 25 24 24 24 26 26 26 26 26 28 28 28 27 27 27 25 24 25 26 26 27 27 27 28 27 26 26 27 27 28 27 27 27 28 28 28 29 29 29 28 28 28 29 29 29 29 28 29 29 29 29 29 29 28 27 27 27 27
27 26 25 22 20 21 21 22 23 25 29 31 32 34 34 35 33 30 27 25 23 24 25 23 22 23 26 27 26 25 24 24 24 25 24 24 26 27 28 27 26 26 25 23 23 23 23 24 24 24 25 26 26 26 26 26 26 27 27 27 27 27 27 27 28 28 28 28 28 28 28 29 29 29 29 29 29 29 29 29 29 29 28 27 27 27
28 27 27 24 22 22 22 23 26 27 26 27 29 31 32 33 33 30 26 23 23 24 23 23 24 24 25 27 27 27 26 24 23 23 23 23 24 25 25 26 25 25 24 24 23 23 23 23 23 23 24 25 25 25 26 25 25 25 25 25 26 26 26 26 26 27 27 27 27 27 27 28 28 29 29 29 29 29 29 29 29 29 29 27 27 27
27 25 27 27 25 26 26 27 29 29 27 27 28 28 30 31 32 29 25 25 27 24 22 25 26 24 24 28 28 27 28 26 24 23 23 22 23 23 23 23 24 24 24 24 23 23 23 23 23 23 23 25 25 24 25 25 25 25 24 24 24 24 24 25 26 27 27 27 27 27 27 27 28 28 29 28 29 29 29 29 29 30 29 28 27 27
27 24 27 28 26 28 30 30 30 29 28 29 29 28 29 30 30 27 26 29 29 24 23 27 27 25 26 29 29 28 29 28 25 24 23 22 22 22 22 22 23 24 23 24 23 22 22 22 23 23 23 24 24 23 24 24 24 24 24 24 23 23 24 25 26 26 26 26 26 26 26 27 27 28 28 28 28 28 28 29 29 29 29 28 28 28
27 25 27 28 26 27 29 30 30 30 28 28 29 29 30 30 29 29 29 31 30 27 28 30 28 26 27 28 29 29 28 28 27 25 25 25 23 22 22 22 22 22 22 22 22 22 22 22 23 23 23 23 23 22 22 23 23 23 23 24 24 23 24 24 25 25 25 25 25 25 26 26 26 26 27 27 27 27 27 27 28 28 28 28 28 27
26 25 28 28 24 25 28 29 30 29 28 27 27 29 30 29 29 29 29 29 28 27 29 30 27 25 26 27 28 28 28 28 27 26 26 26 24 22 22 21 21 21 21 20 21 21 22 21 21 22 23 23 22 22 22 23 23 23 23 23 24 24 24 24 24 24 24 24 24 25 25 25 24 25 25 25 26 26 26 26 26 26 27 27 27 26
27 26 27 27 23 23 27 28 28 29 28 26 25 27 28 27 28 29 28 26 25 25 26 27 25 24 25 26 27 28 27 26 25 25 24 24 24 23 21 21 21 21 21 20 20 20 21 20 20 21 21 21 22 22 22 23 23 23 23 23 23 24 24 24 24 24 24 24 24 24 24 24 23 24 24 24 24 23 24 24 25 25 25 26 26 26
28 26 25 25 22 22 26 28 27 27 25 23 24 27 27 27 28 29 27 25 25 25 25 24 23 24 26 26 26 26 25 23 22 22 22 22 23 23 22 21 21 22 22 21 20 20 20 20 20 20 19 20 20 21 21 22 22 22 23 23 22 22 22 22 23 23 23 23 23 23 23 23 23 23 23 24 24 23 23 23 23 24 24 24 25 25
28 26 26 25 22 21 25 27 26 24 22 22 25 28 28 27 27 27 26 25 25 25 25 24 23 24 25 24 25 24 22 21 21 21 22 22 22 23 22 22 22 22 22 21 20 20 20 20 19 19 19 19 19 19 19 20 20 21 21 21 21 21 21 21 21 21 22 22 22 22 22 22 22 22 22 22 23 23 23 23 23 23 23 23 24 25
27 26 26 26 23 22 24 24 22 21 21 24 27 29 28 28 28 27 26 26 25 25 25 25 24 24 24 24 24 23 22 22 21 21 22 22 22 23 23 22 22 22 21 21 20 20 20 20 20 20 19 19 19 19 20 20 19 20 20 20 20 20 20 20 20 20 20 21 21 21 21 22 22 21 21 22 22 22 22 22 22 23 23 23 23 24
27 26 26 25 24 23 22 22 21 22 24 27 28 28 28 28 28 27 25 24 25 25 25 25 24 24 24 23 22 21 21 22 21 20 20 21 22 23 22 22 22 22 22 21 21 21 21 21 21 21 20 20 20 20 20 20 20 20 20 19 19 19 19 19 19 19 19 20 20 20 20 21 21 20 21 21 21 21 21 21 21 22 23 23 23 23
27 26 25 24 23 23 21 21 22 23 24 25 26 27 28 27 27 26 24 23 24 26 25 25 24 24 23 21 21 20 20 21 21 20 20 20 21 21 22 22 22 22 22 22 22 21 21 21 21 21 20 21 21 21 20 20 20 20 19 19 19 18 19 19 19 19 19 19 20 20 20 20 20 21 21 21 20 20 20 20 21 21 22 22 22 22
27 27 25 23 23 23 21 21 22 22 21 22 24 26 28 28 28 28 25 22 24 26 26 25 24 24 23 21 20 20 20 20 20 19 19 19 20 21 21 22 22 22 22 21 21 21 21 21 22 21 21 21 21 21 20 20 20 20 19 19 19 19 19 19 19 19 19 19 19 20 20 20 20 20 20 20 20 20 20 20 20 21 21 21 21 21
27 27 27 24 23 23 21 20 21 21 20 22 24 26 28 28 28 28 24 21 23 25 26 26 24 23 22 22 22 21 20 19 19 18 18 19 20 21 22 22 22 22 21 21 21 20 20 21 21 22 22 22 22 22 21 21 21 21 20 20 20 19 19 19 19 19 19 19 19 19 19 20 20 20 20 19 19 20 20 20 20 20 20 20 20 20
27 27 26 24 22 22 22 21 21 20 21 23 24 25 27 27 27 25 22 20 22 24 25 25 23 21 21 21 22 21 19 19 18 17 18 18 18 19 20 21 21 21 21 21 21 21 21 21 20 20 21 21 21 21 21 21 21 21 21 21 20 20 19 19 18 19 19 19 19 19 19 20 20 20 20 20 20 20 20 20 20 20 20 20 20 20
25 26 26 24 22 22 22 21 20 21 22 24 25 25 26 26 25 22 20 21 23 24 24 24 22 20 20 20 20 19 18 18 18 18 18 18 18 19 19 20 20 20 20 20 21 20 20 20 20 20 20 20 20 20 20 20 20 20 20 20 20 20 19 19 19 19 19 19 19 19 20 20 20 20 20 20 20 20 20 20 20 20 20 20 20 19
23 24 24 24 23 22 22 22 20 21 23 24 25 25 25 24 22 21 21 23 24 24 24 23 21 21 20 19 19 19 18 18 18 18 19 19 19 19 19 19 19 19 19 20 20 20 20 19 19 19 19 19 19 19 19 19 19 19 19 19 20 20 19 19 19 19 19 19 19 19 19 20 20 20 20 20 20 20 20 20 20 20 20 20 19 19
23 22 21 22 23 22 22 21 20 20 22 25 25 24 24 23 22 22 23 24 24 24 23 22 21 21 21 19 19 19 19 19 19 19 19 19 19 19 18 18 17 17 17 18 18 19 19 19 19 19 18 18 18 18 18 18 18 18 18 18 19 19 19 19 18 18 18 19 19 19 19 20 21 21 20 20 20 20 20 20 20 20 20 20 20 19
25 23 21 22 24 22 20 20 21 22 24 25 24 23 23 23 24 24 24 24 24 24 23 21 20 20 21 20 19 19 19 20 19 19 19 19 19 19 18 18 17 17 16 16 17 17 17 17 18 18 18 18 18 17 17 17 18 18 18 18 18 18 19 19 19 19 19 19 19 19 19 20 20 20 20 20 20 20 20 20 20 20 20 20 20 20
24 24 23 23 24 24 22 22 24 24 24 25 24 24 24 24 25 25 24 24 24 24 23 21 20 20 20 20 20 20 19 19 20 20 20 20 19 19 19 19 18 18 17 16 16 16 17 16 16 17 16 17 17 17 17 17 17 17 17 17 17 17 18 18 19 19 19 19 19 19 19 19 20 20 21 21 21 21 21 21 21 21 21 21 21 21
25 25 24 24 24 24 24 24 25 25 25 25 24 24 24 24 24 24 24 23 23 24 23 22 21 20 20 20 20 20 19 19 19 19 20 20 20 19 19 19 19 19 18 17 17 16 16 16 16 15 15 16 16 17 17 17 17 16 16 17 17 17 17 18 18 19 19 19 19 20 19 19 19 20 20 20 20 21 21 21 21 21 21 21 21 21
25 25 25 25 24 23 22 23 24 25 24 24 24 24 24 24 24 24 24 23 23 23 23 22 21 21 21 21 20 19 19 19 18 17 18 20 20 20 20 19 19 19 19 18 17 16 16 16 15 15 14 15 15 16 16 16 16 16 16 16 17 17 17 17 18 18 19 19 19 20 20 20 20 20 20 20 19 20 20 21 21 20 19 19 19 20
24 23 24 25 24 22 22 22 24 24 24 24 24 23 23 23 23 24 24 23 23 23 23 22 21 21 21 21 20 20 20 19 18 18 18 19 20 20 20 19 19 19 18 17 17 17 17 17 16 15 14 14 15 15 15 15 15 15 15 15 16 16 17 17 18 18 19 19 19 19 20 20 20 20 20 19 19 19 19 19 19 18 18 18 18 18
24 23 24 25 23 22 21 22 22 23 23 22 23 23 23 23 23 23 23 23 23 23 23 22 22 21 21 21 20 20 20 20 19 19 19 20 20 20 20 19 19 19 18 18 18 18 17 17 16 16 15 14 14 15 15 15 14 15 15 15 15 16 16 17 17 18 18 19 19 19 19 20 20 20 19 19 18 18 18 18 18 18 18 18 18 17
24 24 25 24 22 21 21 21 22 22 20 20 21 22 23 23 23 22 22 23 23 22 22 22 22 21 20 20 21 21 20 20 20 20 20 20 20 20 20 19 19 19 19 19 18 18 18 17 16 16 15 14 14 14 14 14 14 14 15 15 15 15 16 16 17 18 18 18 18 18 19 20 19 19 19 19 19 18 18 18 18 18 18 18 18 18
24 24 24 23 21 21 21 21 21 21 20 20 22 22 22 23 22 22 22 22 22 22 22 22 22 21 20 20 21 21 20 20 21 20 20 19 19 20 20 19 19 19 19 19 19 18 17 17 16 16 16 15 14 14 14 14 14 14 14 14 14 15 15 15 16 17 17 17 16 16 17 18 18 18 18 18 18 18 18 17 17 17 17 18 18 18
Height
749 762 767 765 761 753 748 746 744 742 739 740 741 745 755 766 775 775 779 781 780 791 795 792 799 799 794 792 788 783 781 783 784 781 780 780 779 779 779 780 782 784 781 780 784 787 789 792 795 798 801 803 806 809 812 814 816 818 820 822 824 826 828 829 830 832 833 834 835 836 838 839 840 841 842 843 845 846 847 848 850 851 852 853 854 855
751 767 765 754 750 744 740 739 739 741 741 742 743 748 756 765 769 766 776 787 783 791 797 792 801 804 793 791 789 785 786 787 786 784 782 780 780 779 778 780 782 782 779 780 784 786 788 792 795 798 801 803 805 809 812 814 816 818 820 822 823 825 827 829 830 831 832 834 835 836 837 839 840 841 843 844 845 846 847 849 850 851 853 854 855 856
762 767 756 744 741 739 738 736 737 742 743 745 746 752 757 758 763 767 773 785 788 794 800 796 801 805 795 790 790 789 790 789 787 786 782 780 781 781 778 780 782 782 781 782 784 785 788 791 794 798 800 802 805 808 811 814 816 818 820 821 823 825 826 828 830 830 832 833 835 836 837 838 840 841 842 844 844 846 848 849 850 851 853 854 855 856
768 761 747 738 736 740 742 737 738 744 745 747 750 752 751 748 762 775 778 783 785 787 794 796 802 805 797 793 792 792 793 794 796 795 788 781 781 781 778 778 781 783 784 785 784 784 787 790 793 797 799 801 804 807 810 813 815 817 819 821 822 824 826 827 829 830 832 833 834 836 837 838 840 841 842 843 845 846 848 849 850 851 852 854 855 856
758 745 736 736 736 739 744 741 742 750 751 748 748 748 747 747 754 766 776 783 785 784 785 796 814 815 805 804 800 793 796 800 801 799 794 787 782 780 777 777 779 780 782 784 785 784 786 789 792 796 799 801 803 806 809 811 814 816 818 820 822 824 825 827 828 830 831 833 834 835 836 838 839 841 842 843 845 846 848 849 850 851 852 854 855 856
750 733 727 737 739 738 745 746 743 749 754 753 746 739 739 742 748 759 771 782 794 798 788 795 824 827 809 807 804 797 801 803 801 799 796 793 789 784 781 779 778 779 780 782 783 784 785 788 792 795 797 800 803 805 808 810 812 815 817 819 821 823 825 826 828 830 831 832 834 834 836 837 838 840 842 843 844 846 847 848 849 851 852 854 855 856
744 730 726 736 740 740 745 747 740 741 756 759 740 728 731 734 744 759 766 776 795 799 783 782 809 827 821 813 802 797 804 804 801 800 798 795 793 787 782 780 779 779 780 781 781 782 784 787 791 794 796 798 801 804 806 809 811 813 816 818 820 822 824 826 827 829 830 832 833 834 836 837 838 840 841 843 844 845 846 847 849 851 852 853 855 856
741 736 734 737 741 743 746 748 741 739 757 758 731 724 734 732 737 749 753 764 772 774 780 781 790 810 819 809 795 795 803 805 802 802 799 794 790 787 782 778 778 778 778 781 782 782 783 786 789 793 796 797 799 803 805 807 810 812 815 818 819 821 823 825 827 828 830 831 833 834 836 837 838 839 841 842 843 844 846 847 849 850 852 853 854 856
735 739 740 741 746 746 745 745 738 739 753 748 728 727 734 733 734 737 743 753 751 762 787 786 777 796 809 798 791 796 804 808 805 801 798 794 789 787 783 778 776 776 776 779 781 781 782 784 788 791 794 796 798 801 803 805 808 811 814 817 819 820 822 824 826 828 829 831 832 834 835 836 838 839 840 842 843 844 845 847 849 850 852 853 854 855
732 732 732 742 750 747 742 738 734 741 747 737 727 729 732 732 730 731 741 747 750 765 782 772 763 788 811 805 799 805 808 806 801 796 794 791 788 786 783 779 776 775 776 778 779 780 781 783 786 790 793 795 797 800 802 804 807 811 813 816 818 819 821 823 825 827 829 831 832 833 835 836 837 839 840 842 843 844 846 847 848 849 851 853 854 855
733 726 728 739 745 741 737 733 729 735 738 732 732 739 742 741 736 740 744 747 766 779 770 756 752 772 804 810 799 797 794 789 790 792 791 788 786 784 781 780 778 775 775 778 779 778 780 782 785 788 791 793 796 799 801 803 806 810 812 815 817 819 821 823 825 827 828 830 832 833 834 836 837 838 840 841 843 844 846 847 848 849 851 852 853 855
739 735 737 737 734 733 736 735 729 728 729 733 742 750 759 759 753 760 760 761 786 790 762 748 747 759 789 800 788 780 773 772 778 784 786 786 785 783 780 780 779 776 775 776 778 778 779 782 784 787 790 791 794 797 799 802 805 809 812 814 817 818 820 822 824 826 828 829 831 832 834 835 837 838 839 841 843 844 845 846 848 849 850 852 853 854
746 740 738 740 735 731 740 744 739 737 734 738 750 760 773 778 776 782 782 779 788 777 752 745 749 762 779 777 770 770 767 765 767 771 776 779 780 781 780 780 780 778 775 774 776 777 777 780 782 785 789 790 792 795 797 800 804 807 810 813 815 818 819 821 823 825 827 828 830 831 833 835 836 838 839 840 842 843 844 846 847 848 849 851 852 853
756 746 739 745 743 733 739 747 750 748 742 746 756 766 780 788 792 797 788 783 782 764 745 740 751 774 784 770 760 761 760 758 759 762 766 769 772 777 777 778 779 778 775 773 774 775 776 778 780 783 786 789 791 794 796 798 802 805 809 811 814 817 818 820 822 824 826 827 829 831 832 834 836 837 838 840 841 842 844 845 846 847 848 850 851 852
765 762 746 747 745 736 739 740 738 738 739 745 748 756 769 773 781 788 778 777 777 760 744 742 757 779 786 773 757 752 752 752 755 757 759 763 766 770 773 775 778 777 775 773 772 772 773 775 779 781 784 788 790 793 795 797 800 803 807 810 812 815 817 819 821 823 825 826 828 830 831 833 835 836 838 839 840 842 843 844 845 846 847 849 850 851
766 758 734 732 732 732 741 734 723 732 741 742 741 755 764 753 756 768 763 759 760 760 753 751 764 771 766 762 752 748 750 748 753 757 758 764 765 768 774 774 775 776 775 774 772 771 772 774 778 780 783 787 789 792 793 795 798 801 805 808 811 814 816 818 820 822 824 825 827 829 830 832 834 835 837 838 840 841 842 843 844 845 847 848 849 850
773 760 731 729 732 729 737 733 724 735 744 741 747 760 753 736 741 760 764 753 754 773 765 750 768 773 763 764 756 751 757 754 755 760 760 764 765 769 774 772 772 774 774 774 773 771 771 773 777 779 782 786 788 790 792 794 797 800 803 807 810 812 815 817 819 820 823 825 826 828 829 831 833 834 836 837 839 840 841 842 843 845 846 846 848 849
772 772 742 734 743 730 724 730 729 727 733 744 752 747 737 737 743 753 769 767 765 781 766 744 765 780 775 779 767 756 763 762 759 762 763 765 765 767 771 769 770 771 771 773 773 772 770 771 776 778 780 784 786 789 791 793 797 799 802 806 808 811 813 815 818 819 821 823 825 827 828 830 832 833 835 836 838 839 840 842 843 844 845 845 846 848
762 778 757 737 742 732 721 737 746 733 726 735 738 728 734 756 764 761 774 780 777 783 769 746 755 771 774 775 769 763 766 764 761 762 764 768 767 766 768 768 769 769 771 773 773 774 772 771 775 778 779 783 785 787 790 793 796 799 802 805 807 809 811 814 816 818 820 822 824 826 827 829 830 832 833 835 836 838 839 840 841 842 844 844 845 846
755 777 775 747 735 733 735 748 758 750 736 732 733 731 733 745 755 758 764 771 775 782 776 757 760 776 774 763 761 763 760 760 765 765 766 768 766 764 765 766 769 769 771 772 773 775 773 772 775 777 780 782 784 787 789 792 795 798 801 804 806 808 810 813 815 817 819 821 822 824 826 828 829 831 832 833 835 836 837 839 840 841 843 843 844 845
754 770 779 760 740 743 750 751 751 749 744 744 748 749 742 735 738 747 752 753 762 776 778 773 783 789 772 757 759 759 756 762 767 766 766 766 764 763 762 763 767 769 770 771 772 774 774 774 775 777 780 782 784 787 789 792 794 797 800 803 804 807 809 811 813 815 818 819 821 823 825 827 828 830 831 832 833 835 836 838 839 840 842 843 844 845
763 771 780 776 763 759 753 743 738 736 734 740 746 748 744 739 744 761 765 750 747 763 767 770 793 797 771 757 760 757 761 768 767 765 765 764 765 764 762 761 763 767 768 768 770 772 773 774 776 778 781 782 784 787 789 792 794 796 800 802 804 806 808 810 812 813 816 818 820 821 823 825 827 828 830 831 832 834 835 836 837 838 840 841 842 843
764 771 781 782 772 764 754 741 736 732 726 729 735 738 739 739 745 761 770 755 745 754 754 754 780 792 774 763 762 759 761 763 762 764 763 762 766 765 763 762 761 763 766 766 768 770 772 775 778 780 782 783 785 787 789 792 794 796 799 801 803 804 807 809 811 812 814 816 818 820 822 823 825 827 828 829 831 832 833 835 836 837 838 840 841 842
766 774 785 786 773 761 753 743 735 729 727 733 733 730 734 738 736 738 745 747 749 753 751 753 775 788 778 770 770 767 766 764 762 764 765 765 767 764 762 763 763 764 765 767 770 771 772 776 778 781 783 784 786 788 791 792 793 795 798 800 802 803 806 808 810 811 813 815 817 818 820 822 823 825 826 828 829 830 831 833 834 835 837 838 840 841
776 782 788 796 795 788 778 767 755 741 734 737 736 730 732 734 733 735 735 742 752 750 744 759 786 793 780 773 775 776 777 773 766 765 769 770 768 765 763 763 764 766 768 772 775 775 776 778 780 783 785 785 786 789 791 792 792 794 797 799 801 802 805 808 809 811 812 814 816 817 818 820 821 823 824 826 827 828 830 831 832 834 835 837 839 840
779 783 786 800 815 821 816 803 787 769 753 746 741 736 733 731 737 746 746 753 767 756 746 767 791 789 776 772 773 776 779 779 773 770 773 775 771 767 766 767 768 770 772 775 777 777 778 780 782 785 787 787 788 789 791 792 793 795 797 799 801 803 805 807 809 811 812 813 814 816 817 818 820 821 822 824 825 826 828 829 830 832 833 835 837 838
779 781 781 790 800 807 809 796 781 774 767 758 750 744 740 737 740 748 753 763 771 765 763 775 783 783 781 776 772 773 775 780 783 779 776 778 778 773 771 772 773 774 775 775 776 777 779 780 781 783 785 787 788 790 791 794 795 796 798 799 800 803 806 808 810 811 811 812 813 814 816 817 819 820 821 822 824 825 826 827 828 829 831 833 835 836
781 784 779 779 781 781 782 777 770 770 768 762 758 756 754 750 748 754 760 759 761 771 778 774 774 785 787 775 771 772 769 775 785 785 780 780 782 779 777 776 776 777 777 777 778 779 779 781 782 782 784 785 787 790 791 794 797 798 800 802 803 805 808 809 810 810 810 811 812 813 815 817 819 819 820 821 822 824 825 825 827 828 829 831 833 835
781 787 778 774 775 770 767 766 765 768 768 762 761 761 760 758 757 760 761 753 754 771 776 765 768 783 781 770 769 769 766 769 777 781 781 782 783 782 781 781 781 780 781 780 780 780 780 781 781 783 785 786 788 791 793 795 798 799 801 803 804 806 806 806 807 808 810 811 812 813 815 817 818 818 819 821 821 823 824 825 826 827 828 830 831 833
780 788 779 775 777 771 766 764 762 766 770 766 763 762 761 761 760 760 760 756 758 765 762 757 768 780 776 770 768 765 764 767 769 773 776 778 782 786 787 788 787 784 784 784 783 782 782 782 782 784 787 788 790 793 796 799 801 802 802 802 802 803 803 804 805 807 809 810 812 813 815 816 817 817 818 819 821 822 824 825 826 826 827 829 830 831
781 787 778 776 782 778 768 765 763 765 771 772 770 768 764 763 763 762 765 766 768 771 765 761 773 786 780 770 767 766 765 766 770 773 775 776 781 787 792 795 792 788 787 788 788 786 783 783 784 786 789 791 792 793 795 799 801 802 803 803 803 803 803 805 806 807 809 810 812 813 814 815 816 816 817 818 820 822 823 824 825 826 826 827 828 830
780 785 778 779 790 786 771 767 767 765 769 776 776 774 772 770 766 765 773 781 783 784 779 774 781 792 786 773 770 770 768 772 778 779 780 781 782 786 792 796 795 791 788 789 790 790 788 786 786 788 790 792 793 794 796 798 799 801 802 803 803 803 805 806 806 808 810 811 812 813 814 815 816 816 817 818 820 822 824 825 826 826 827 827 827 829
779 784 782 785 796 791 774 768 769 771 784 791 783 776 777 776 769 768 776 785 789 789 791 792 792 789 783 779 778 776 778 785 789 787 787 787 785 785 789 791 791 789 788 789 791 791 792 791 791 792 794 795 796 797 798 798 799 800 801 802 803 803 805 806 806 808 810 811 813 813 814 815 816 817 818 819 820 822 823 825 826 827 827 827 827 828
779 783 783 785 796 795 779 770 774 788 804 803 783 772 775 778 777 778 782 786 789 791 793 796 794 787 784 786 786 784 787 791 791 790 788 787 788 788 788 788 789 788 788 790 791 792 793 794 794 796 797 798 800 800 801 801 801 800 800 801 802 803 805 805 806 807 809 811 812 813 814 815 815 817 819 821 821 821 821 823 825 826 827 827 827 827
782 783 782 782 789 789 779 779 796 811 808 792 775 768 770 773 775 779 785 787 788 790 790 791 793 790 788 789 787 787 791 790 790 791 789 787 788 786 786 788 789 789 790 792 792 793 795 795 797 800 801 802 802 803 805 805 804 802 801 801 802 803 803 804 805 807 808 809 810 811 812 812 813 815 817 819 820 821 821 823 824 824 825 825 826 827
783 784 784 782 787 794 791 793 806 807 791 778 774 772 771 774 775 780 791 795 791 790 791 791 791 789 788 790 791 792 793 791 792 796 795 792 789 786 788 791 791 791 792 793 794 795 796 797 799 802 804 805 805 805 806 806 804 803 801 802 803 803 803 804 806 807 808 808 808 809 810 811 812 813 814 816 818 820 821 822 822 822 822 822 823 825
780 784 786 786 790 799 805 801 793 789 788 787 785 780 777 779 781 783 796 803 794 787 788 791 791 790 789 791 793 795 797 799 802 804 802 797 794 791 791 792 792 793 794 794 796 796 797 798 800 801 804 804 804 805 805 804 804 803 803 804 805 805 805 805 806 807 808 808 809 809 810 810 811 811 812 814 816 818 818 818 819 819 820 821 822 823
777 781 787 794 792 792 805 811 800 798 808 807 796 785 777 776 776 776 790 804 797 785 785 790 791 791 791 792 794 796 800 809 815 814 807 802 799 796 795 795 796 797 797 797 799 799 799 799 800 801 804 804 804 805 805 805 805 805 806 807 807 808 808 807 807 808 809 809 810 810 811 811 811 810 812 813 815 817 816 816 816 817 818 820 821 821
776 776 780 791 793 789 801 815 815 815 817 809 796 786 777 775 774 775 792 808 801 789 786 787 790 794 793 791 793 795 803 814 821 818 812 808 804 801 800 800 799 800 801 801 801 802 802 802 801 802 804 805 806 806 807 808 808 808 808 809 810 811 811 810 810 810 811 811 811 812 813 813 813 812 813 814 815 816 815 815 815 816 817 819 819 820
779 778 780 788 791 788 793 805 815 820 816 803 793 787 780 776 776 788 810 817 803 793 791 789 794 800 799 795 795 800 807 814 815 814 811 810 809 807 805 805 805 805 805 805 804 804 805 805 805 805 806 808 809 809 810 811 811 811 812 812 813 813 814 815 814 813 813 814 814 814 815 815 815 814 815 815 816 816 816 815 815 816 817 817 818 819
783 779 779 784 787 786 788 800 814 817 808 797 791 787 781 780 787 806 822 815 799 795 794 792 797 802 802 802 805 808 811 811 810 810 810 809 810 810 810 810 810 809 809 809 809 808 808 809 809 809 811 813 813 813 813 814 814 815 815 815 815 816 817 818 818 817 817 817 816 816 817 816 816 816 816 816 817 817 817 816 816 816 817 817 818 818
793 790 786 787 789 787 784 794 812 816 803 793 791 786 783 792 807 816 812 800 795 795 794 796 800 801 801 806 809 810 812 812 812 813 812 812 812 812 812 812 812 813 813 812 812 812 812 813 812 812 814 816 817 818 818 818 818 819 820 820 819 819 820 820 820 821 820 820 819 818 818 818 818 817 817 817 817 817 817 817 817 817 817 817 818 819
793 799 803 797 794 796 798 804 820 825 807 791 791 792 793 802 811 808 799 795 795 795 795 800 802 800 801 806 808 810 811 812 813 815 814 814 814 814 815 816 815 816 815 815 815 815 815 816 816 816 817 819 820 821 821 820 821 822 823 824 823 823 823 823 823 823 822 822 821 819 819 821 820 819 818 818 818 818 818 818 818 818 818 818 819 819
788 795 805 801 795 804 816 818 818 814 801 791 795 801 800 799 798 796 796 797 796 794 798 803 804 802 802 805 807 809 811 811 813 814 815 815 815 816 818 817 817 818 818 817 818 817 817 818 818 818 819 820 821 823 822 822 822 823 824 825 825 825 826 825 825 825 824 825 823 821 822 823 822 820 819 819 819 819 819 820 819 819 819 820 820 821
794 791 796 798 794 797 806 807 801 797 795 794 796 798 797 795 793 793 796 797 796 796 798 802 804 804 802 802 805 807 809 811 811 812 813 815 815 816 818 818 818 819 819 819 820 819 819 820 821 821 821 821 822 824 824 824 824 825 826 827 827 827 827 827 827 826 826 825 824 823 823 823 822 821 821 821 821 821 821 822 821 820 821 821 821 821
787 785 789 794 795 795 796 796 794 794 796 795 795 797 796 795 794 794 796 798 798 797 798 800 803 803 802 803 805 807 809 811 811 811 812 813 815 817 817 818 818 819 819 820 821 821 821 821 823 823 822 822 823 824 824 824 825 826 827 828 829 829 828 829 829 828 826 825 824 824 824 823 822 821 822 823 823 822 822 822 822 822 822 822 822 822
786 785 790 792 796 803 806 801 795 795 797 796 797 799 798 797 797 797 798 800 799 798 799 801 802 802 802 804 805 808 810 810 811 813 813 813 815 817 817 818 819 819 819 820 820 821 822 822 824 825 824 824 824 825 825 825 825 827 829 830 830 831 831 831 831 829 827 826 826 825 825 824 823 823 823 823 823 823 822 822 823 823 823 823 824 823
790 790 793 792 795 804 808 803 797 796 797 797 799 801 801 801 801 799 798 800 800 800 801 802 802 803 804 804 806 808 810 810 812 814 813 813 815 816 818 820 820 819 820 821 821 822 822 822 824 825 825 825 825 826 826 826 826 828 829 830 830 832 833 833 832 831 829 828 827 827 826 826 825 824 824 824 824 825 825 825 824 825 825 825 826 825
789 793 793 792 799 806 808 805 801 801 803 802 801 802 802 803 803 802 801 801 801 802 802 802 804 805 805 806 808 808 809 811 812 813 813 814 814 816 818 820 820 820 821 821 822 822 822 822 823 824 824 825 825 826 826 827 828 829 829 830 830 831 833 834 834 833 832 829 829 829 828 828 827 826 825 825 826 827 829 829 827 827 827 827 827 827
789 792 788 793 805 812 811 808 806 808 811 810 805 804 804 803 804 805 804 803 803 804 804 804 805 807 807 808 808 808 810 812 812 814 815 815 815 817 818 820 820 821 822 822 822 823 822 822 823 823 824 825 826 826 827 828 829 830 830 830 829 829 831 832 833 833 833 831 830 829 828 829 829 828 827 826 827 828 829 830 829 828 828 828 828 828
790 791 790 797 807 809 808 806 805 806 810 808 804 804 804 803 804 806 806 805 805 805 805 805 806 808 810 809 808 809 811 811 812 814 815 816 817 818 819 820 821 822 822 823 823 824 824 824 824 824 825 826 826 827 828 828 829 830 830 830 829 828 829 830 832 834 833 832 831 830 829 830 831 830 829 828 828 829 829 829 830 830 829 829 829 829
Wind_Speed
7 6 8 9 10 11 13 14 14 15 14 10 6 6 6 6 3 6 8 8 8 7 8 9 6 8 11 11 9 10 12 12 12 13 12 12 12 12 13 13 14 13 12 15 19 18 17 18 17 17 16 16 16 16 17 16 15 16 17 17 18 17 17 16 15 15 14 12 12 14 13 12 12 13 13 12 13 13 13 13 13 11 9 9 8 7
8 8 9 11 13 14 14 15 15 15 14 10 9 5 4 7 4 6 12 10 6 4 4 6 6 8 11 11 7 6 10 12 12 14 14 15 13 11 13 14 14 12 12 15 17 17 17 17 18 18 17 16 17 18 18 16 16 17 17 17 17 17 16 15 14 14 14 12 12 12 11 11 12 13 13 12 12 13 14 14 13 10 10 9 8 7
8 8 11 13 14 15 15 15 16 15 13 10 7 6 5 7 7 7 14 16 9 4 4 7 6 6 9 10 7 4 4 5 5 8 10 14 14 11 11 13 13 12 12 13 14 16 18 18 18 17 17 17 18 19 18 17 17 17 17 18 17 17 16 15 14 14 13 13 12 11 11 12 12 12 12 12 12 14 14 14 12 10 10 9 8 7
7 8 12 14 12 15 17 15 14 12 10 9 6 9 5 9 11 5 10 15 9 2 5 9 4 2 5 6 6 3 1 3 4 5 7 6 9 12 11 11 14 14 13 14 14 15 17 18 18 17 17 17 18 18 18 18 18 17 18 18 17 17 16 15 15 13 13 13 10 10 12 13 12 11 12 13 14 14 14 13 12 11 11 10 8 8
8 9 12 15 13 15 17 13 11 10 8 8 10 12 3 8 11 8 10 10 7 4 7 8 3 1 4 5 6 4 4 2 3 6 7 5 4 9 12 11 14 14 13 15 15 15 16 18 18 18 17 18 18 18 18 18 18 18 18 18 18 17 16 16 16 14 14 13 10 11 13 11 11 12 13 14 14 13 14 13 12 11 12 11 9 9
9 11 12 15 15 14 15 12 12 11 7 7 12 15 10 2 9 17 16 10 5 4 7 8 4 1 4 6 7 6 5 4 5 7 7 3 6 9 13 12 12 14 13 13 14 14 16 18 19 18 18 18 18 18 18 18 18 19 19 18 18 18 16 16 16 15 14 14 12 12 13 11 11 12 11 12 13 12 13 13 12 12 12 11 10 10
9 13 8 10 13 14 15 12 10 9 7 8 8 9 13 8 10 17 15 11 4 4 9 11 5 1 4 8 9 9 8 8 7 6 7 6 7 9 12 12 12 13 13 13 14 15 15 17 19 19 19 19 18 18 18 18 18 20 21 19 19 18 17 17 17 16 15 14 13 13 13 11 11 11 9 11 12 11 11 11 13 12 12 12 11 11
10 16 8 9 12 12 12 9 7 8 8 7 3 4 9 10 6 10 8 7 5 5 10 12 10 5 4 8 12 12 9 8 7 7 8 8 8 8 10 13 13 13 14 13 14 15 16 17 19 19 19 20 19 19 19 18 19 21 22 20 19 18 18 18 18 17 16 15 14 13 13 11 10 10 10 12 13 11 11 11 12 12 12 12 11 11
12 16 8 8 12 8 7 7 9 10 10 9 7 7 10 14 7 10 8 5 6 5 7 12 14 7 1 5 10 11 10 9 9 10 9 9 9 7 10 13 13 12 13 14 14 14 16 18 20 20 20 19 19 19 19 19 19 21 22 20 19 19 19 19 19 18 16 15 15 13 13 12 10 10 12 14 12 11 12 12 11 12 12 11 11 11
6 7 5 5 9 6 6 9 12 12 11 11 11 8 8 12 8 8 7 5 4 6 6 9 11 6 0 5 7 8 9 11 11 11 10 10 10 10 11 13 13 13 12 13 14 15 17 20 20 21 21 20 19 19 18 19 20 21 21 20 20 19 19 19 19 18 16 15 15 14 13 14 12 12 14 15 13 11 12 12 11 12 12 11 11 11
8 4 5 6 8 8 10 11 13 14 13 12 9 6 7 9 6 3 6 5 5 6 8 8 9 7 4 5 8 8 9 12 12 10 10 11 11 12 11 8 10 13 12 12 13 15 18 21 21 20 21 20 19 19 19 19 19 20 21 21 20 19 20 20 19 18 17 16 15 14 13 14 14 15 16 15 13 13 13 12 11 12 12 11 11 11
11 7 6 4 8 9 12 12 10 12 14 12 6 5 5 6 5 4 5 6 6 6 6 7 8 9 6 4 10 11 9 14 15 12 13 14 12 12 8 4 7 10 12 13 12 14 16 17 19 20 20 20 21 21 21 20 19 19 21 22 21 19 21 21 19 18 17 16 15 14 14 14 15 16 16 15 14 15 14 13 13 13 12 12 12 11
10 7 6 4 8 10 11 10 8 9 13 10 5 6 6 5 6 7 6 6 7 7 4 5 7 7 2 3 11 15 13 15 16 14 15 16 15 13 9 7 7 9 12 13 11 13 14 14 17 21 21 21 21 21 21 21 22 21 20 22 21 20 21 21 20 19 18 17 16 15 15 14 14 14 15 15 14 14 14 13 14 14 13 12 12 12
8 7 7 8 8 10 12 8 8 9 10 9 6 7 6 5 7 7 7 6 7 7 7 7 6 3 2 2 9 15 13 14 15 15 16 17 18 16 13 12 9 9 10 11 13 14 13 13 17 19 20 20 20 20 20 20 23 22 21 22 22 20 21 21 20 19 18 17 16 16 16 15 14 13 14 14 13 13 13 12 13 13 12 11 11 11
7 8 10 10 8 10 13 13 10 9 9 9 7 9 7 7 7 5 6 5 5 7 7 9 5 1 3 3 6 11 12 13 13 13 15 15 15 16 15 15 12 10 8 6 11 16 13 15 19 18 19 21 20 21 21 20 22 23 22 23 23 21 21 21 21 20 19 18 17 17 16 15 14 13 13 14 14 14 13 12 12 12 11 10 10 11
10 7 9 13 9 10 13 15 12 7 8 9 8 10 9 8 6 6 7 6 7 7 4 5 3 3 4 6 6 7 8 10 11 12 14 15 14 13 14 16 14 12 8 4 7 13 14 17 20 19 20 21 21 21 21 21 22 23 23 24 23 21 20 21 21 21 20 19 18 17 17 16 15 14 13 13 13 13 13 12 12 12 11 11 11 11
7 8 4 10 9 11 13 14 10 7 5 5 8 10 10 9 9 7 7 9 9 6 4 4 5 7 5 6 8 8 8 9 10 12 13 14 16 15 13 15 14 12 10 5 3 6 13 18 19 20 22 22 22 22 21 21 22 23 24 24 23 22 20 20 20 20 20 19 18 18 18 17 16 15 14 13 13 13 13 12 12 12 11 10 11 11
4 9 1 6 9 12 12 11 12 12 10 5 6 8 10 10 10 7 6 7 7 5 6 6 7 9 6 4 8 11 10 10 10 12 11 10 13 16 13 12 12 12 11 7 2 3 8 17 18 19 23 24 23 22 22 22 22 22 24 23 23 23 22 21 20 19 19 19 18 18 18 18 17 15 14 14 13 13 12 12 11 11 11 10 10 10
1 6 4 5 10 9 8 6 10 13 15 12 7 4 6 8 8 6 5 6 7 6 6 6 6 6 3 4 9 11 11 11 11 11 12 10 10 12 13 11 12 12 10 7 5 3 3 12 18 19 21 23 24 23 21 22 21 21 22 22 22 22 22 21 20 19 19 19 18 17 18 18 17 16 14 14 14 13 12 12 11 11 12 11 10 11
1 4 3 7 11 6 6 6 8 8 13 14 10 7 7 6 6 7 5 5 6 6 6 6 5 3 2 3 9 11 10 10 10 9 9 11 10 9 12 13 10 10 10 8 7 4 2 5 14 20 21 21 23 22 21 22 22 22 21 21 22 22 22 21 20 19 19 18 17 17 18 17 17 17 15 14 14 14 14 14 13 11 12 11 10 12
3 3 2 5 8 5 6 7 8 8 9 10 9 8 8 6 4 5 6 7 7 6 5 5 1 3 2 0 5 8 6 7 10 9 7 8 8 7 9 12 9 8 10 10 8 7 5 3 7 13 17 21 22 20 21 21 19 19 21 21 22 23 23 22 20 20 19 18 17 17 17 17 17 16 16 14 14 15 15 16 15 14 12 11 11 12
2 2 4 5 6 6 3 2 9 13 10 9 9 7 7 5 5 5 6 7 7 6 6 5 1 3 2 3 2 7 9 8 8 9 7 6 6 5 6 9 11 10 11 13 11 9 7 6 5 7 10 18 22 19 19 18 15 16 18 19 21 22 23 22 20 21 21 18 17 18 17 17 17 16 16 15 15 15 15 16 16 16 14 12 12 13
7 3 4 6 6 8 12 14 14 15 13 12 10 8 8 7 7 8 6 5 6 6 8 8 2 3 2 3 4 4 10 9 9 9 7 6 4 4 6 7 8 10 11 13 12 10 9 10 11 11 10 15 21 20 18 16 17 18 15 14 18 19 20 20 18 20 21 19 17 17 17 17 17 17 16 16 15 15 15 15 14 14 14 13 12 13
7 4 3 6 7 7 11 14 15 15 15 13 11 11 10 9 10 9 6 5 6 6 7 7 3 3 5 1 5 3 10 8 8 9 7 3 2 4 8 8 7 8 9 9 8 8 9 10 11 12 14 15 15 15 18 18 19 21 16 13 16 16 16 18 17 17 19 19 17 17 17 17 17 17 17 16 16 16 15 15 14 14 14 13 12 12
4 3 3 5 6 5 6 8 9 11 9 7 7 9 11 12 13 11 7 6 7 8 8 5 0 2 3 2 2 1 8 8 4 4 6 2 1 3 7 8 8 8 8 7 4 4 5 5 4 3 6 10 14 16 19 19 20 21 18 17 17 16 15 16 16 17 17 17 17 16 16 16 16 16 17 17 16 16 16 15 15 15 15 14 13 13
4 3 4 4 4 3 3 4 6 7 6 5 9 12 13 14 11 9 8 5 4 9 9 4 3 4 3 4 3 2 7 10 3 2 4 3 2 2 5 7 7 8 9 9 7 6 6 4 7 8 6 9 15 17 16 16 17 18 17 16 18 17 16 15 15 16 17 16 16 15 15 15 15 16 16 16 15 16 16 16 15 15 16 16 15 14
5 4 5 6 5 4 3 5 9 10 9 8 9 10 8 6 6 7 5 2 2 5 3 6 7 4 3 4 5 3 4 11 8 3 1 3 3 5 3 3 6 7 8 10 8 7 7 7 9 10 8 10 14 15 14 15 16 18 16 15 15 16 16 17 17 17 18 18 18 17 15 14 14 14 15 15 15 15 15 15 16 16 16 17 16 15
4 5 6 8 8 7 7 8 8 10 12 10 10 12 12 11 9 9 6 3 3 4 1 9 12 6 3 3 5 4 3 7 10 7 3 2 1 3 4 2 5 7 7 8 9 8 8 8 8 7 9 11 12 12 14 15 15 17 17 15 16 18 19 19 17 16 17 18 19 18 16 16 15 14 14 14 14 14 14 14 15 16 16 17 17 17
4 6 7 9 9 9 10 9 7 8 10 10 9 8 8 9 9 8 9 9 6 6 6 4 9 8 4 3 5 4 2 5 9 10 8 6 6 6 4 1 3 7 8 8 10 9 7 8 8 6 6 9 9 10 9 9 11 13 14 14 15 16 16 15 14 13 13 14 15 16 16 16 14 14 14 14 13 12 12 13 13 13 15 16 19 18
2 4 7 10 10 8 10 10 7 7 9 10 8 6 7 8 9 8 9 9 9 10 11 9 4 8 7 4 5 4 4 6 7 8 8 7 9 11 7 2 1 3 6 7 7 8 7 6 6 7 7 7 8 7 5 3 2 5 8 10 10 9 8 9 10 10 11 11 11 12 13 11 10 11 12 12 11 10 10 10 9 9 10 12 14 16
0 3 5 7 8 8 9 10 9 8 6 7 8 8 9 9 6 7 7 8 10 10 11 11 4 5 4 4 4 4 3 5 5 5 5 4 9 14 11 6 2 2 6 6 4 6 7 5 2 3 5 7 10 11 9 9 9 8 8 9 9 8 6 6 6 6 8 10 9 9 9 7 6 8 8 8 7 7 9 10 9 10 10 8 8 8
2 4 4 5 6 6 7 9 9 7 5 7 9 6 9 11 8 3 5 10 11 12 11 10 4 2 1 3 2 1 2 5 7 7 6 4 6 11 13 10 6 5 10 9 4 3 5 4 4 5 5 4 7 10 12 15 16 13 12 12 12 12 12 12 11 10 9 9 9 8 7 6 4 5 8 9 6 2 4 6 7 8 9 8 9 9
4 4 4 4 5 5 8 8 6 6 6 7 5 4 9 11 9 2 8 12 12 13 9 4 4 4 3 4 4 2 7 10 9 8 6 4 3 4 9 9 6 7 10 11 9 7 6 7 8 8 7 5 4 5 4 7 10 9 10 10 11 12 12 12 13 14 12 10 10 9 9 9 8 6 7 11 11 8 7 8 9 8 7 7 9 11
4 5 4 3 4 5 6 5 4 6 5 1 3 6 7 9 10 6 6 9 8 9 7 4 6 7 7 6 5 5 9 9 6 6 7 5 3 3 8 8 7 10 11 11 11 9 9 11 11 10 9 8 9 10 8 7 7 7 6 5 4 6 7 6 7 10 11 10 9 9 9 10 10 6 3 8 14 15 14 14 16 14 11 10 10 13
4 5 4 3 4 5 3 4 6 5 3 1 1 4 5 4 6 4 5 7 7 7 7 8 7 7 7 6 6 9 10 11 12 12 12 9 5 4 10 10 9 11 11 11 11 10 10 12 12 11 10 8 8 8 7 7 7 8 11 12 11 9 8 7 6 3 5 6 6 7 9 9 9 7 5 8 11 14 15 16 17 17 16 14 14 15
5 5 4 3 3 3 3 6 5 1 2 4 2 6 7 5 6 3 4 7 8 6 7 7 7 6 6 5 6 7 6 9 13 12 12 12 10 7 10 10 10 11 11 11 12 12 13 14 14 14 12 10 10 9 8 7 8 10 12 13 14 15 14 13 12 9 5 5 5 4 5 5 6 7 8 10 10 10 12 12 13 17 19 18 17 15
4 5 4 2 1 1 4 5 2 1 2 2 4 6 6 6 6 5 1 3 6 5 4 6 7 6 5 3 4 4 3 4 7 8 11 12 12 10 9 11 12 12 14 15 14 14 15 15 16 16 13 11 11 11 11 11 11 13 15 14 15 16 16 16 15 13 9 4 2 2 2 2 4 7 8 9 8 8 10 12 14 16 17 17 15 15
4 3 3 3 1 1 3 4 4 3 2 1 5 6 7 7 6 5 2 1 6 8 6 5 6 5 4 2 1 3 3 1 2 5 9 11 11 10 10 12 14 15 16 18 19 18 16 15 17 16 14 12 11 10 11 12 12 14 14 15 15 16 17 17 16 16 13 9 6 6 5 5 2 3 3 3 5 6 8 11 12 12 13 13 13 14
5 4 3 4 4 3 2 2 4 3 1 1 5 7 9 9 8 6 3 0 7 12 10 7 7 6 4 2 2 3 4 3 3 3 6 9 10 10 11 14 16 16 17 17 18 20 22 22 22 20 17 15 13 11 11 10 11 13 14 14 15 15 16 15 15 15 14 11 10 9 8 6 6 5 5 4 2 2 2 3 3 6 9 10 11 13
4 4 5 5 5 4 3 2 0 1 1 3 7 8 8 10 10 7 4 1 8 12 11 11 11 9 7 4 4 4 3 2 4 4 3 6 10 12 13 15 16 17 17 16 16 18 20 22 24 23 21 19 17 16 16 14 14 15 15 14 14 15 15 15 14 14 13 12 12 12 10 9 7 7 6 5 4 4 3 3 2 2 4 5 6 6
4 4 4 5 4 4 4 2 3 2 1 5 7 7 10 10 6 4 2 2 7 9 9 11 12 11 10 7 5 4 4 4 4 5 6 9 10 11 13 15 16 17 17 16 16 17 18 20 21 21 22 21 19 18 18 17 17 17 16 15 15 15 14 13 13 13 12 12 11 11 11 10 9 8 7 6 5 4 3 3 3 3 2 2 3 3
4 4 3 4 4 4 4 1 4 4 2 7 7 6 9 8 3 1 1 3 5 8 8 11 12 11 10 9 6 4 6 7 6 6 7 9 10 10 13 15 16 17 17 17 17 17 18 19 20 21 21 20 18 17 16 16 16 16 15 15 15 14 12 11 12 11 11 11 11 10 9 8 8 9 9 8 7 6 6 5 4 3 3 3 4 5
1 2 2 3 5 5 4 2 3 4 4 8 7 4 7 6 2 2 2 2 5 8 8 9 10 9 9 9 8 6 8 10 9 8 8 8 10 12 13 15 15 15 16 17 18 18 18 19 20 20 19 18 18 17 16 16 16 15 14 14 14 13 11 10 10 10 10 10 11 11 10 8 8 10 11 10 9 10 11 11 11 9 7 6 7 7
3 2 1 2 4 3 3 3 2 2 4 7 6 4 5 4 3 2 3 4 6 7 6 7 7 5 6 9 9 8 8 10 10 9 8 8 10 11 12 12 13 14 15 17 18 19 19 18 18 18 18 17 17 16 16 16 16 15 14 14 14 13 12 10 9 8 8 7 8 9 9 7 8 9 10 10 9 9 10 11 12 11 10 9 8 8
3 3 1 2 3 4 4 4 3 3 4 5 6 5 5 5 5 5 6 6 5 6 7 6 4 3 3 6 9 9 8 8 9 9 9 9 9 10 11 12 12 12 13 14 16 18 18 16 15 15 15 16 15 14 14 14 15 16 16 15 15 14 13 10 8 8 7 6 7 8 7 7 8 9 9 8 6 7 8 9 10 9 9 10 9 8
2 2 1 1 1 3 5 4 3 5 5 5 6 5 5 7 7 7 7 7 6 7 7 5 4 3 2 3 6 7 8 8 8 6 6 8 10 10 11 12 12 12 11 11 11 12 13 13 12 12 12 13 13 13 13 14 15 16 15 14 14 14 14 11 9 8 8 7 7 7 7 7 8 9 9 9 7 7 8 7 8 8 9 10 10 9
2 3 2 2 1 1 1 2 2 5 5 5 5 4 5 7 8 7 7 6 6 7 8 6 5 3 2 2 4 7 9 9 8 5 4 5 8 10 10 11 11 10 10 9 8 8 8 9 9 9 9 9 10 12 14 14 14 15 14 13 13 13 14 12 9 8 9 9 9 8 6 6 6 7 8 10 10 11 11 10 9 10 12 13 13 12
2 4 3 2 2 3 2 2 3 4 5 6 4 4 5 6 7 7 7 6 7 8 7 8 7 4 3 3 4 6 9 10 9 7 6 6 8 9 10 10 10 10 9 8 7 7 7 6 6 7 8 7 8 11 13 13 12 12 11 11 11 11 11 11 9 8 8 7 7 7 6 5 6 5 7 7 8 10 12 14 13 13 13 13 13 15
2 0 2 1 3 5 4 2 2 2 4 6 5 4 4 4 5 6 6 6 7 7 7 8 8 5 3 3 4 5 6 8 9 8 8 6 7 9 11 10 10 10 10 9 7 6 6 6 5 6 7 6 5 7 9 10 11 10 9 9 10 9 9 9 7 5 6 7 7 7 6 4 6 8 6 8 9 7 8 10 11 11 11 11 11 11
3 3 2 1 2 3 2 1 1 2 1 1 2 2 3 3 3 4 5 5 6 6 6 7 7 7 5 2 3 5 4 5 7 8 8 6 7 9 11 11 11 11 10 10 9 8 8 8 7 6 7 6 5 6 6 6 7 7 7 7 8 9 7 9 9 4 5 7 8 9 9 6 6 9 9 7 11 11 8 7 7 8 9 10 10 10
1 4 3 2 1 3 4 2 1 1 2 2 2 1 1 2 2 3 4 5 6 6 6 6 6 7 5 2 3 5 5 5 7 8 7 6 7 9 10 10 10 9 8 8 8 8 8 8 8 7 8 7 8 8 8 6 5 5 5 5 5 7 7 8 10 7 5 6 6 7 10 9 7 8 9 9 7 7 7 7 7 8 10 11 10 10
Wind_Direction
215 218 218 222 225 225 220 230 244 251 270 300 285 238 185 175 147 144 141 136 170 202 198 188 183 184 179 182 195 186 184 194 195 188 181 178 176 177 179 166 164 176 171 163 166 169 165 160 159 157 159 160 151 146 147 148 145 141 142 143 145 146 146 149 151 151 153 154 152 149 151 151 147 147 151 151 150 150 149 152 152 150 158 158 155 156
211 230 225 223 227 231 231 230 240 250 256 268 277 285 154 164 180 142 126 132 195 218 182 195 189 192 191 185 209 214 188 192 192 190 187 180 180 185 181 167 165 175 170 163 167 170 166 163 163 160 163 165 153 150 153 153 150 147 148 150 149 150 153 155 157 157 155 155 155 155 156 151 149 154 157 155 154 149 150 158 157 154 162 160 157 160
202 235 233 226 226 234 240 234 236 244 251 259 263 271 245 165 147 134 130 142 183 221 177 195 192 191 195 185 202 239 212 205 189 199 203 187 180 186 185 168 166 177 169 166 173 172 168 168 166 162 167 169 156 154 158 157 154 151 152 155 152 153 158 159 160 159 156 156 155 156 158 155 155 160 159 155 153 149 152 159 157 161 171 164 159 165
206 223 231 235 226 227 239 237 238 242 245 253 246 258 252 147 152 155 136 142 158 185 159 169 174 210 207 189 200 207 70 355 346 306 275 232 190 188 191 174 169 178 171 170 178 174 171 172 168 166 171 169 160 159 162 161 159 155 155 157 155 158 160 159 160 159 157 155 149 144 153 160 159 157 157 153 151 153 156 158 159 170 175 163 163 171
235 217 212 232 232 225 236 235 235 240 235 239 245 261 281 138 164 146 124 131 140 149 138 141 131 291 234 209 209 175 95 45 300 283 276 292 270 205 193 184 174 178 176 175 179 177 176 173 168 169 173 170 164 164 166 166 163 157 158 159 159 160 159 159 160 160 156 154 147 137 144 155 150 146 152 152 153 157 160 160 163 171 172 164 167 171
247 238 206 214 227 226 234 234 225 227 232 235 236 250 272 232 132 124 133 138 140 167 150 154 166 254 239 227 216 173 132 191 218 244 238 241 280 231 195 189 183 179 179 179 180 178 177 173 168 171 175 172 169 171 171 170 165 158 159 160 159 161 161 160 160 161 160 156 150 142 143 150 147 147 153 156 159 161 163 164 165 169 169 169 170 171
245 254 235 210 226 224 225 236 227 220 236 238 223 237 263 255 133 131 153 154 154 192 168 177 189 161 213 230 220 177 167 203 196 216 227 205 228 223 197 191 189 183 178 181 185 179 178 176 170 172 178 176 173 176 173 171 167 158 158 161 159 161 161 160 160 161 163 160 158 155 154 155 153 153 159 162 161 163 169 163 160 167 170 172 172 172
237 249 233 211 241 232 218 230 217 209 225 240 285 340 298 282 185 166 190 184 189 180 163 184 200 201 202 207 202 175 172 203 195 202 221 216 214 212 208 198 189 188 179 181 187 180 179 179 174 175 181 180 175 176 175 173 168 157 157 162 161 161 161 161 162 161 162 163 163 166 165 164 163 157 158 166 164 168 176 161 156 167 171 175 175 172
217 238 202 203 250 233 203 220 214 221 232 247 292 315 313 308 263 202 221 232 217 199 174 190 203 221 227 164 177 168 172 200 207 206 207 216 213 204 216 206 191 191 182 181 187 181 181 180 177 177 181 184 177 174 176 173 166 157 159 163 161 163 163 162 164 163 164 165 164 168 168 168 171 162 158 167 167 167 171 160 159 170 169 176 179 173
226 246 157 197 256 234 212 219 210 223 242 252 275 279 281 295 273 214 234 260 248 240 223 200 201 219 262 144 166 167 181 200 205 205 200 206 209 202 210 208 197 193 182 184 187 184 185 182 180 179 182 185 177 174 178 174 167 161 161 163 163 165 164 163 166 165 165 167 167 171 170 167 168 163 158 162 162 163 167 162 166 172 170 177 178 173
296 282 162 204 241 234 239 234 213 216 234 245 264 283 276 278 281 268 272 286 287 258 238 225 211 212 215 171 178 188 192 191 189 194 198 199 206 203 202 207 210 201 185 186 191 187 186 184 182 180 183 183 174 176 181 171 165 164 164 164 165 167 166 164 167 168 166 167 171 174 172 166 161 161 160 158 159 163 169 170 169 170 172 182 179 172
256 220 160 223 253 241 238 236 220 218 229 233 239 267 263 254 250 246 249 254 264 256 238 240 233 229 237 182 187 201 195 185 184 188 191 193 201 200 190 196 230 221 193 186 192 186 183 184 182 182 186 183 175 179 180 169 164 166 166 166 165 166 167 166 168 170 169 168 172 174 173 170 163 163 165 164 165 167 172 175 173 174 180 187 185 178
232 219 150 209 251 251 244 225 204 219 233 223 214 248 246 235 229 223 225 229 244 249 230 239 248 239 241 137 183 193 192 190 189 187 185 188 193 190 186 192 218 236 207 189 191 186 183 187 185 183 185 182 177 178 176 169 165 166 167 167 167 168 167 168 169 171 172 171 173 173 172 175 171 168 169 170 173 175 178 180 175 177 184 188 189 186
208 221 196 208 222 234 248 238 201 206 216 204 203 230 232 240 234 220 223 225 241 248 217 211 234 218 125 121 184 185 187 190 187 187 185 187 189 184 188 197 205 232 221 195 191 190 185 184 184 183 179 177 178 176 177 174 166 164 168 168 169 169 168 169 170 172 174 173 174 175 174 177 177 174 173 175 179 181 183 183 179 179 183 188 192 193
230 222 197 206 204 198 224 249 241 217 200 193 218 233 229 240 244 240 236 221 239 249 211 193 207 187 130 157 185 182 182 182 182 185 183 186 188 182 188 197 201 219 230 212 195 193 187 177 181 183 174 173 178 178 180 177 164 161 167 169 170 170 170 171 172 173 175 175 176 177 177 178 180 179 178 182 186 185 185 187 187 186 184 189 194 194
280 267 175 186 201 178 206 249 263 248 210 185 203 231 236 241 247 267 276 277 283 281 238 188 151 76 112 137 153 171 169 163 165 172 175 180 182 179 189 195 199 208 218 229 204 193 186 177 179 181 173 174 181 184 184 174 163 162 165 168 171 172 173 172 173 175 176 177 178 178 180 181 182 184 184 188 189 186 188 188 188 190 187 191 198 194
290 307 144 172 203 180 197 240 251 253 246 178 188 215 229 249 260 264 267 275 283 289 270 217 131 112 132 132 137 157 159 153 157 161 167 175 177 178 188 194 196 202 204 211 226 203 186 179 182 180 175 180 184 186 184 174 166 164 164 169 173 173 175 175 174 177 177 178 179 179 181 184 185 188 188 190 190 188 190 187 184 189 188 191 197 192
305 314 281 181 212 185 185 227 235 244 262 242 203 201 205 230 257 272 268 256 253 255 253 224 155 144 158 147 155 169 169 166 168 162 157 167 179 181 185 191 193 195 197 192 196 263 193 177 182 183 178 182 186 186 182 173 168 165 165 172 176 175 177 178 176 177 178 179 180 180 183 186 188 191 193 193 191 189 189 186 182 186 189 193 201 194
286 290 270 229 235 189 161 224 236 237 248 256 270 270 222 216 224 246 268 264 250 252 253 223 173 151 154 157 166 173 174 173 172 164 157 167 186 186 181 187 193 193 195 187 180 244 218 176 181 186 182 182 183 184 178 171 170 170 171 176 179 178 179 180 180 179 179 181 183 183 184 188 189 192 198 196 191 190 192 191 187 190 194 198 205 201
243 258 254 245 244 202 162 221 232 217 229 248 269 280 255 230 208 211 225 250 259 267 266 239 190 125 66 147 163 175 181 166 157 160 165 174 190 192 182 183 190 192 191 183 179 199 223 186 184 185 186 182 179 179 176 174 177 176 177 180 179 178 180 182 183 181 181 185 187 186 185 188 191 193 198 199 196 195 196 197 192 192 199 198 197 198
251 241 264 272 266 241 187 202 230 222 209 221 237 247 241 222 205 215 214 221 245 268 282 275 175 92 12 301 154 162 149 111 126 159 183 187 190 192 187 184 182 189 193 181 175 184 186 194 191 189 189 179 172 175 172 174 181 178 177 182 179 176 181 186 185 180 184 188 189 188 187 189 193 195 198 200 201 200 200 201 196 196 203 202 200 201
342 312 323 314 284 264 263 283 262 248 228 213 214 233 250 228 204 232 229 210 219 248 269 282 62 96 347 328 96 115 104 100 131 162 190 201 193 196 200 194 183 184 195 187 177 182 182 175 186 209 201 171 165 174 171 167 177 178 173 180 181 177 181 190 188 181 184 190 190 189 190 193 194 197 200 200 201 202 203 202 198 199 204 205 205 204
355 313 301 296 276 291 319 319 290 262 246 231 217 218 240 241 223 229 234 220 221 229 244 261 258 113 77 325 320 85 108 133 158 160 181 201 195 203 199 197 191 184 189 190 182 176 173 172 183 209 216 179 169 175 168 157 161 165 162 170 179 180 183 191 192 183 182 188 191 191 193 196 195 197 202 204 204 206 206 205 202 200 198 199 205 206
339 298 284 286 285 300 301 290 280 267 247 227 217 215 223 245 254 247 242 243 241 226 224 245 246 127 104 76 314 35 105 145 177 155 156 185 208 206 188 179 185 180 174 181 185 175 167 167 178 198 204 186 166 156 153 151 152 158 166 173 178 182 183 190 195 186 184 190 192 194 196 197 198 199 203 206 208 209 209 209 207 200 196 201 210 208
333 325 316 286 293 300 275 268 271 270 258 234 232 229 223 236 252 258 257 254 257 262 272 284 203 108 92 118 300 63 128 155 191 128 111 124 236 180 169 164 160 153 138 128 133 131 138 142 126 145 180 155 130 129 144 150 150 160 176 181 180 185 183 188 197 191 186 190 193 197 201 200 200 202 204 206 210 212 213 214 212 205 200 203 211 210
302 308 310 283 294 302 271 275 278 284 301 276 244 239 229 224 233 256 257 247 266 276 287 326 87 134 136 139 133 121 139 139 132 5 60 55 350 78 153 163 146 137 128 121 123 119 116 105 84 71 62 100 119 133 146 150 153 164 176 176 180 189 186 187 197 193 187 187 190 196 205 207 206 206 207 210 212 214 214 214 216 213 202 198 206 212
288 284 277 267 274 273 251 269 279 283 285 268 256 269 279 279 302 310 278 222 353 308 300 55 69 109 124 119 117 102 118 124 134 207 136 84 12 20 66 129 124 135 141 136 141 134 119 112 109 110 110 114 123 136 145 149 156 168 176 175 177 185 189 195 200 195 190 192 194 195 200 211 215 212 212 214 216 219 219 217 219 218 206 196 201 207
274 277 269 262 253 249 247 250 261 268 271 281 301 320 341 341 319 307 287 261 355 325 292 78 75 93 115 118 122 110 88 111 129 158 171 150 128 55 42 58 115 132 142 142 145 139 125 128 137 143 138 129 123 128 140 144 147 161 174 179 182 186 190 195 195 190 191 197 201 200 203 212 217 215 217 220 221 222 224 223 223 223 213 199 199 206
282 283 282 280 265 251 249 246 242 253 267 282 293 305 329 327 312 301 287 283 303 290 278 25 68 91 95 88 98 83 59 92 112 135 158 179 166 123 88 46 128 142 152 158 154 147 141 145 157 170 148 129 119 109 113 125 136 151 163 168 176 183 185 182 179 182 189 194 200 204 208 213 217 221 224 227 230 231 232 234 233 231 224 209 204 209
317 281 279 289 290 277 261 257 245 234 251 273 290 303 306 312 324 315 293 300 309 287 282 307 29 84 71 73 87 52 50 81 94 122 148 162 147 131 121 103 236 171 155 156 152 148 154 156 164 181 169 140 127 109 76 47 135 170 173 170 168 166 164 163 165 178 191 195 200 203 204 209 217 221 220 221 227 229 232 243 248 245 238 221 211 213
42 269 279 287 290 280 264 260 247 227 240 271 290 303 293 286 298 301 308 338 333 312 303 304 312 89 38 19 70 52 62 96 93 96 96 94 115 124 130 134 151 126 118 129 155 159 158 149 127 160 154 143 153 162 180 213 232 232 222 219 215 205 203 202 189 194 206 210 213 207 201 206 213 213 206 196 201 211 215 224 237 246 250 242 228 225
275 282 294 278 274 274 265 257 244 235 249 255 252 274 300 293 274 257 34 24 352 328 314 301 301 87 11 337 27 58 76 65 48 47 47 38 90 120 132 142 154 131 116 121 133 148 147 126 92 92 89 108 152 163 180 200 214 220 218 222 227 227 232 235 230 232 234 232 234 230 225 228 224 220 211 192 180 209 240 236 244 251 256 255 246 244
285 290 294 281 286 283 271 267 253 241 243 244 259 334 1 341 310 313 66 46 6 335 316 304 349 17 16 344 328 28 58 51 31 11 10 11 16 82 113 128 135 111 103 103 94 85 84 76 74 82 72 62 90 100 127 176 188 197 202 207 214 217 224 229 230 234 239 241 244 242 242 246 254 262 243 227 234 253 264 269 274 269 266 267 256 253
304 299 292 276 274 270 273 283 265 242 237 238 334 342 17 17 346 346 64 66 27 350 342 21 14 354 7 5 357 50 69 72 64 29 23 27 348 40 83 92 91 84 80 80 81 79 83 79 74 76 72 56 57 61 60 74 89 97 103 109 155 189 196 202 216 225 230 236 243 244 245 249 257 270 255 233 242 247 249 257 264 261 259 261 257 257
312 293 293 280 270 272 273 251 236 232 228 185 5 354 23 24 339 347 85 79 47 11 359 18 17 356 5 23 40 66 83 84 67 40 27 28 17 65 81 76 75 81 80 78 78 76 84 94 98 97 96 88 78 76 77 74 71 75 77 73 73 80 86 85 84 122 192 198 203 220 232 238 243 245 226 213 223 234 242 247 251 249 249 252 253 254
310 299 305 294 281 291 272 246 237 159 159 193 129 31 14 347 317 331 72 55 29 15 2 7 9 2 13 35 39 39 54 71 65 42 20 22 25 48 75 76 72 81 88 90 93 93 90 89 90 91 96 104 103 97 93 87 78 75 73 72 73 72 74 80 79 78 114 167 176 185 204 217 220 228 236 230 221 227 237 239 241 242 242 244 246 245
295 305 310 286 228 286 282 267 256 140 160 145 66 31 4 0 349 332 17 48 17 14 17 0 353 8 40 62 55 39 5 24 61 48 19 21 33 42 66 83 80 76 76 74 77 90 100 100 94 86 83 85 87 84 79 76 77 77 74 74 74 71 72 78 77 71 80 114 124 93 108 155 215 238 246 242 236 240 240 236 239 242 240 239 236 234
262 273 307 309 288 268 292 289 274 237 193 35 11 349 338 350 350 317 273 59 12 12 22 2 343 7 50 66 58 82 83 22 57 40 10 15 40 50 65 83 82 74 66 59 55 57 66 81 89 88 88 84 81 87 92 91 90 90 87 81 74 69 68 67 63 60 62 68 72 76 88 103 141 232 240 227 236 247 244 242 244 244 239 235 233 233
251 239 240 267 257 227 216 260 285 282 153 1 325 317 327 341 340 319 271 221 3 359 358 356 359 14 37 43 12 50 84 106 100 55 7 12 40 57 67 75 76 74 69 63 61 55 50 53 59 63 68 68 65 74 85 84 82 85 87 83 76 72 69 61 55 55 55 56 68 81 87 94 101 100 94 98 118 153 201 239 252 244 238 236 236 238
248 233 224 240 251 254 239 204 227 6 33 343 316 308 330 347 338 309 266 338 358 347 342 355 17 27 19 11 23 33 48 109 127 121 80 51 52 54 61 67 69 70 70 68 69 68 61 58 56 53 49 46 45 51 53 50 54 62 67 70 70 70 68 59 54 56 58 59 69 78 80 82 90 97 99 97 101 108 115 112 110 165 216 219 222 234
265 262 252 253 254 266 266 212 113 104 336 326 323 329 341 336 314 291 275 329 339 337 344 5 28 46 43 33 35 39 43 64 98 119 107 90 81 72 75 82 77 70 72 72 71 70 66 63 62 59 51 43 43 48 48 45 46 47 49 56 63 64 65 62 59 59 60 61 65 71 78 82 84 88 90 92 94 91 83 89 112 133 146 161 165 158
287 297 320 320 313 302 284 227 123 113 17 330 325 358 357 330 286 27 328 283 327 352 12 30 39 52 62 68 74 87 105 114 122 126 107 94 95 86 77 78 73 64 65 71 73 74 70 64 62 60 55 48 46 50 54 54 52 45 42 45 51 56 60 62 60 59 57 58 60 62 63 71 83 81 72 69 74 74 70 76 95 110 100 106 131 140
303 315 348 352 352 344 338 15 96 107 33 342 326 10 24 10 62 68 319 318 20 15 24 47 49 51 72 90 98 108 124 133 136 131 118 106 102 90 74 71 70 63 59 61 64 67 68 66 62 61 59 54 48 46 48 52 53 50 44 40 40 45 53 58 61 61 55 51 57 59 48 45 66 78 73 67 66 65 66 70 74 74 75 97 127 144
342 351 14 8 8 1 5 37 65 96 49 16 9 52 63 52 68 52 359 20 36 29 40 58 58 61 89 108 120 127 131 135 137 136 134 126 114 103 93 87 82 75 67 62 63 65 65 61 59 60 60 57 53 49 47 47 49 48 43 39 37 37 39 43 54 64 60 50 53 60 56 47 53 66 73 72 67 66 69 67 65 68 76 86 98 115
340 23 66 3 9 36 55 69 93 98 75 59 54 61 66 61 52 42 37 36 30 35 56 73 80 82 104 121 126 128 132 138 143 144 142 136 127 120 114 107 100 96 88 78 74 75 71 63 57 55 54 54 56 57 55 54 52 47 40 32 30 29 27 26 34 46 54 55 43 43 53 57 51 53 61 68 71 71 73 73 66 65 72 71 68 82
79 78 133 230 44 54 35 25 77 97 87 83 77 58 44 45 40 35 40 38 25 32 51 75 91 101 153 153 126 123 134 142 140 138 140 139 136 135 128 121 118 115 108 98 89 85 79 72 66 60 53 51 52 53 57 59 55 49 42 33 25 18 12 12 21 27 33 43 39 37 53 63 59 58 52 45 48 54 55 68 74 61 51 50 52 62
50 20 308 236 195 166 289 336 61 87 74 68 79 77 56 45 37 34 40 36 26 31 50 73 88 96 133 134 111 116 132 141 138 137 151 147 143 144 140 133 131 128 121 115 109 101 92 82 77 74 67 60 57 56 58 61 58 52 45 38 30 16 4 3 10 18 25 34 32 29 40 48 50 72 69 44 34 40 40 42 53 51 38 31 31 33
9 1 315 290 24 81 107 24 31 71 61 40 39 54 52 42 32 31 37 39 34 34 53 81 92 91 99 108 113 124 136 142 144 154 172 166 153 152 151 147 145 142 135 131 127 118 107 98 95 97 89 79 78 76 70 68 66 61 54 47 41 31 12 2 3 11 20 35 38 24 18 19 21 56 91 74 35 29 34 38 44 47 35 25 25 26
151 214 245 252 68 97 109 37 7 119 77 34 26 40 45 42 37 30 31 44 47 39 47 73 89 98 104 111 124 137 142 143 149 162 169 163 152 149 151 157 159 153 149 148 146 143 134 122 114 110 101 93 101 100 87 80 76 73 76 73 62 51 26 357 348 358 8 25 43 28 10 22 24 20 53 104 98 68 44 41 45 44 33 23 22 27
168 253 251 197 132 123 120 26 29 138 141 1 30 65 48 46 52 37 25 39 52 48 43 55 77 92 97 127 158 152 152 153 158 164 165 162 162 155 154 163 167 163 165 168 163 159 152 141 134 127 120 118 121 117 108 103 91 81 84 83 75 72 47 356 336 345 19 24 30 18 9 29 43 17 17 68 97 96 89 74 61 52 46 38 28 25
62 342 19 93 133 124 136 162 223 198 193 192 172 131 42 31 64 76 56 42 44 48 45 42 59 87 108 173 173 144 157 170 165 165 163 161 171 168 163 171 177 171 169 171 165 159 150 144 146 145 139 137 134 124 118 115 105 87 83 83 76 79 67 19 353 355 28 46 44 25 19 28 35 24 22 34 57 83 108 112 96 75 64 60 53 42